Location: ???
(32.3885°N, 98.2106°E)
Time: 07:19:36
(UTC+00:00)

Tiangong - Visible Passes

Search period start: 12 October 2024 00:00
Search period end: 22 October 2024 00:00
Orbit: 372 x 377 km, 41.5° (Epoch: 11 October)

Date Brightness Start Highest point End Pass type
(mag) Time Alt. Az. Time Alt. Az. Time Alt. Az.
14 Oct -0.8 23:03:19 10° SW 23:06:14 38° SE 23:09:09 10° ENE visible
15 Oct 0.4 22:01:37 13° S 22:03:08 18° SE 22:05:18 10° E visible
16 Oct -2.0 22:34:01 18° SW 22:36:09 71° SSE 22:39:14 10° ENE visible
17 Oct 0.4 21:34:08 21° E 21:34:08 21° E 21:35:35 10° E visible
17 Oct -1.3 23:06:28 10° W 23:09:21 34° NNW 23:12:14 10° NE visible
18 Oct -2.0 22:06:01 61° N 22:06:01 61° N 22:08:50 10° ENE visible
19 Oct -0.8 22:37:42 20° NW 22:38:51 25° NNW 22:41:29 10° NE visible
20 Oct 0.7 21:37:13 15° NE 21:37:13 15° NE 21:37:57 10° NE visible
20 Oct 0.0 23:10:02 10° NW 23:12:04 16° N 23:14:05 10° NE visible
21 Oct -0.1 22:08:32 19° N 22:08:32 19° N 22:10:22 10° NE visible
